• In Deutschland
  • Länderverzeichnis
  • Für 7 Tage
  • Wassertemperatur
  • Satellitenkarten
  • Wetterkarte
  • Widgets
  • user-avatar
    Anmelden

    Stündliche Wetter Lezhe

    Heute, 21 August, Montag

    Zeit Temperatur Niederschläge Wind Luftdruck Luftfeuchtigkeit
    00:00 +23°C° 1,3 mm 2 m/S 736 mmHg 80%
    01:00 +21°C° 0 mm 2 m/S 736 mmHg 85%
    02:00 +21°C° 0,4 mm 2 m/S 736 mmHg 86%
    03:00 +20°C° 0,4 mm 3 m/S 736 mmHg 87%
    04:00 +20°C° 0,4 mm 3 m/S 736 mmHg 88%
    05:00 +21°C° 0,1 mm 3 m/S 736 mmHg 84%
    06:00 +22°C° 0,1 mm 3 m/S 736 mmHg 80%
    07:00 +22°C° 0,1 mm 3 m/S 736 mmHg 76%
    08:00 +25°C° 0,1 mm 4 m/S 736 mmHg 68%
    09:00 +26°C° 0,1 mm 4 m/S 736 mmHg 59%
    10:00 +28°C° 0,1 mm 4 m/S 736 mmHg 51%
    11:00 +28°C° 0,1 mm 4 m/S 736 mmHg 47%
    12:00 +29°C° 0,1 mm 4 m/S 736 mmHg 44%
    13:00 +30°C° 0,1 mm 4 m/S 736 mmHg 40%
    14:00 +30°C° 0 mm 4 m/S 735 mmHg 41%
    15:00 +29°C° 0 mm 5 m/S 735 mmHg 41%
    16:00 +29°C° 0 mm 5 m/S 735 mmHg 42%
    17:00 +27°C° 0 mm 5 m/S 736 mmHg 46%
    18:00 +25°C° 0 mm 5 m/S 736 mmHg 51%
    19:00 +22°C° 0 mm 4 m/S 736 mmHg 55%
    20:00 +21°C° 0 mm 4 m/S 736 mmHg 58%
    21:00 +20°C° 0 mm 4 m/S 737 mmHg 61%
    22:00 +19°C° 0 mm 5 m/S 737 mmHg 64%
    23:00 +18°C° 0 mm 4 m/S 737 mmHg 64%

    Morgen, 22 August, Dienstag

    Zeit Temperatur Niederschläge Wind Luftdruck Luftfeuchtigkeit
    00:00 +18°C° 0 mm 4 m/S 737 mmHg 64%
    01:00 +17°C° 0 mm 4 m/S 737 mmHg 64%
    02:00 +17°C° 0 mm 4 m/S 737 mmHg 64%
    03:00 +15°C° 0 mm 4 m/S 737 mmHg 63%
    04:00 +15°C° 0 mm 4 m/S 737 mmHg 63%
    05:00 +17°C° 0 mm 4 m/S 738 mmHg 58%
    06:00 +19°C° 0 mm 4 m/S 738 mmHg 54%
    07:00 +20°C° 0 mm 5 m/S 738 mmHg 49%
    08:00 +22°C° 0 mm 4 m/S 738 mmHg 43%
    09:00 +25°C° 0 mm 4 m/S 738 mmHg 37%
    10:00 +27°C° 0 mm 4 m/S 738 mmHg 31%
    11:00 +28°C° 0 mm 4 m/S 738 mmHg 29%
    12:00 +29°C° 0 mm 4 m/S 738 mmHg 26%
    13:00 +30°C° 0 mm 4 m/S 738 mmHg 24%
    14:00 +30°C° 0 mm 4 m/S 737 mmHg 24%
    15:00 +30°C° 0 mm 4 m/S 737 mmHg 25%
    16:00 +30°C° 0 mm 5 m/S 737 mmHg 25%
    17:00 +27°C° 0 mm 4 m/S 737 mmHg 32%
    18:00 +23°C° 0 mm 4 m/S 737 mmHg 38%
    19:00 +21°C° 0 mm 4 m/S 737 mmHg 44%
    20:00 +20°C° 0 mm 3 m/S 738 mmHg 46%
    21:00 +19°C° 0 mm 3 m/S 738 mmHg 48%
    22:00 +18°C° 0 mm 3 m/S 738 mmHg 50%
    23:00 +18°C° 0 mm 3 m/S 738 mmHg 53%

    übermorgen, 23 August, Mittwoch

    Zeit Temperatur Niederschläge Wind Luftdruck Luftfeuchtigkeit
    00:00 +18°C° 0 mm 3 m/S 738 mmHg 55%
    01:00 +17°C° 0 mm 3 m/S 738 mmHg 58%
    02:00 +17°C° 0 mm 3 m/S 738 mmHg 59%
    03:00 +17°C° 0 mm 3 m/S 738 mmHg 60%
    04:00 +16°C° 0 mm 3 m/S 738 mmHg 60%
    05:00 +18°C° 0 mm 3 m/S 738 mmHg 56%
    06:00 +20°C° 0 mm 3 m/S 738 mmHg 51%
    07:00 +21°C° 0 mm 2 m/S 739 mmHg 46%
    08:00 +25°C° 0 mm 2 m/S 739 mmHg 39%
    09:00 +27°C° 0 mm 2 m/S 739 mmHg 33%
    10:00 +29°C° 0 mm 2 m/S 739 mmHg 26%
    11:00 +30°C° 0 mm 2 m/S 739 mmHg 25%
    12:00 +31°C° 0 mm 3 m/S 739 mmHg 23%
    13:00 +33°C° 0 mm 3 m/S 739 mmHg 21%
    14:00 +32°C° 0 mm 4 m/S 738 mmHg 23%
    15:00 +32°C° 0 mm 4 m/S 738 mmHg 24%
    16:00 +30°C° 0 mm 4 m/S 738 mmHg 26%
    17:00 +28°C° 0 mm 3 m/S 738 mmHg 33%
    18:00 +25°C° 0 mm 2 m/S 739 mmHg 40%
    19:00 +21°C° 0 mm 2 m/S 739 mmHg 47%
    20:00 +21°C° 0 mm 2 m/S 739 mmHg 46%
    21:00 +20°C° 0 mm 2 m/S 739 mmHg 44%
    22:00 +20°C° 0 mm 2 m/S 740 mmHg 42%
    23:00 +19°C° 0 mm 2 m/S 740 mmHg 42%

    24 August, Donnerstag

    Zeit Temperatur Niederschläge Wind Luftdruck Luftfeuchtigkeit
    00:00 +19°C° 0 mm 2 m/S 740 mmHg 42%
    01:00 +18°C° 0 mm 2 m/S 740 mmHg 42%
    02:00 +18°C° 0 mm 2 m/S 740 mmHg 44%
    03:00 +18°C° 0 mm 2 m/S 740 mmHg 45%
    04:00 +18°C° 0 mm 2 m/S 740 mmHg 46%
    05:00 +20°C° 0 mm 2 m/S 740 mmHg 44%
    06:00 +21°C° 0 mm 2 m/S 740 mmHg 42%
    07:00 +24°C° 0 mm 2 m/S 740 mmHg 40%
    08:00 +26°C° 0 mm 2 m/S 740 mmHg 34%
    09:00 +29°C° 0 mm 2 m/S 740 mmHg 29%
    10:00 +31°C° 0 mm 2 m/S 740 mmHg 23%
    11:00 +32°C° 0 mm 2 m/S 740 mmHg 22%
    12:00 +34°C° 0 mm 3 m/S 740 mmHg 21%
    13:00 +35°C° 0 mm 3 m/S 740 mmHg 19%
    14:00 +34°C° 0 mm 4 m/S 740 mmHg 21%
    15:00 +34°C° 0 mm 4 m/S 740 mmHg 22%
    16:00 +34°C° 0 mm 4 m/S 739 mmHg 23%
    17:00 +30°C° 0 mm 3 m/S 739 mmHg 29%
    18:00 +27°C° 0 mm 3 m/S 740 mmHg 35%
    19:00 +24°C° 0 mm 2 m/S 740 mmHg 41%
    20:00 +24°C° 0 mm 2 m/S 740 mmHg 40%
    21:00 +23°C° 0 mm 2 m/S 740 mmHg 39%
    22:00 +23°C° 0 mm 2 m/S 740 mmHg 38%
    23:00 +21°C° 0 mm 2 m/S 740 mmHg 38%

    25 August, Freitag

    Zeit Temperatur Niederschläge Wind Luftdruck Luftfeuchtigkeit
    00:00 +21°C° 0 mm 2 m/S 740 mmHg 38%
    01:00 +21°C° 0 mm 2 m/S 740 mmHg 38%
    02:00 +20°C° 0 mm 2 m/S 740 mmHg 39%
    03:00 +20°C° 0 mm 2 m/S 740 mmHg 39%
    04:00 +20°C° 0 mm 2 m/S 740 mmHg 40%
    05:00 +23°C° 0 mm 2 m/S 740 mmHg 38%
    06:00 +24°C° 0 mm 2 m/S 740 mmHg 36%
    07:00 +26°C° 0 mm 2 m/S 741 mmHg 34%
    08:00 +28°C° 0 mm 2 m/S 741 mmHg 30%
    09:00 +31°C° 0 mm 1 m/S 741 mmHg 26%
    10:00 +33°C° 0 mm 1 m/S 741 mmHg 22%
    11:00 +35°C° 0 mm 2 m/S 740 mmHg 21%
    12:00 +36°C° 0 mm 2 m/S 740 mmHg 20%
    13:00 +37°C° 0 mm 3 m/S 740 mmHg 19%
    14:00 +36°C° 0 mm 3 m/S 740 mmHg 20%
    15:00 +36°C° 0 mm 3 m/S 739 mmHg 21%
    16:00 +35°C° 0 mm 3 m/S 739 mmHg 22%
    17:00 +31°C° 0 mm 3 m/S 739 mmHg 28%
    18:00 +28°C° 0 mm 2 m/S 739 mmHg 34%
    19:00 +25°C° 0 mm 2 m/S 739 mmHg 40%
    20:00 +25°C° 0 mm 2 m/S 739 mmHg 38%
    21:00 +25°C° 0 mm 2 m/S 740 mmHg 37%
    22:00 +24°C° 0 mm 2 m/S 740 mmHg 35%
    23:00 +24°C° 0 mm 2 m/S 740 mmHg 34%

    26 August, Samstag

    Zeit Temperatur Niederschläge Wind Luftdruck Luftfeuchtigkeit
    00:00 +24°C° 0 mm 2 m/S 740 mmHg 33%
    01:00 +23°C° 0 mm 2 m/S 740 mmHg 32%
    02:00 +23°C° 0 mm 2 m/S 740 mmHg 32%
    03:00 +23°C° 0 mm 2 m/S 740 mmHg 32%
    04:00 +21°C° 0 mm 2 m/S 739 mmHg 32%
    05:00 +24°C° 0 mm 2 m/S 740 mmHg 31%
    06:00 +26°C° 0 mm 2 m/S 740 mmHg 31%
    07:00 +27°C° 0 mm 2 m/S 740 mmHg 30%
    08:00 +30°C° 0 mm 2 m/S 740 mmHg 26%
    09:00 +32°C° 0 mm 1 m/S 740 mmHg 22%
    10:00 +35°C° 0 mm 1 m/S 740 mmHg 19%
    11:00 +36°C° 0 mm 2 m/S 739 mmHg 18%
    12:00 +37°C° 0 mm 2 m/S 739 mmHg 17%
    13:00 +38°C° 0 mm 3 m/S 739 mmHg 16%
    14:00 +37°C° 0 mm 3 m/S 738 mmHg 18%
    15:00 +37°C° 0 mm 3 m/S 738 mmHg 19%
    16:00 +36°C° 0 mm 3 m/S 738 mmHg 20%
    17:00 +33°C° 0 mm 3 m/S 738 mmHg 26%
    18:00 +29°C° 0 mm 2 m/S 738 mmHg 32%
    19:00 +26°C° 0 mm 1 m/S 738 mmHg 37%
    20:00 +26°C° 0 mm 1 m/S 738 mmHg 35%
    21:00 +25°C° 0 mm 1 m/S 739 mmHg 33%
    22:00 +25°C° 0 mm 2 m/S 739 mmHg 32%
    23:00 +24°C° 0 mm 2 m/S 739 mmHg 31%
    Mehr zeigen